Weather History for Douglas Bisbee, AZ

Change the Weather History Date:

Friday, November 4, 2011

  Actual Average Record
Temperature  
Mean Temperature 60 °F 58 °F  
Max Temperature 82 °F 75 °F 84 °F (2001)
Min Temperature 38 °F 40 °F 21 °F (1956)
Degree Days  
Heating Degree Days 5 8  
Month to date heating degree days 11 29  
Since 1 July heating degree days 54 112  
Cooling Degree Days 0 0  
Month to date cooling degree days 0 0  
Year to date cooling degree days 2235 1812  
Growing Degree Days 10 (Base 50)    
Moisture  
Dew Point 26 °F    
Average Humidity 29    
Maximum Humidity 45    
Minimum Humidity 12    
Precipitation  
Precipitation 0.00 in 0.03 in 0.46 in (2000)
Month to date precipitation 0.00 0.10  
Year to date precipitation 7.08 11.54  
Snow  
Snow 0.00 in - - ()
Month to date snowfall 0.0  
Snow Depth 0.00 in    
Sea Level Pressure  
Sea Level Pressure 29.80 in    
Wind  
Wind Speed 15 mph (South)    
Max Wind Speed 36 mph    
Max Gust Speed 45 mph    
Visibility 10 miles    
Events      
T = Trace of Precipitation, MM = Missing Value Source: NWS Daily Summary

Daily Weather History Graph

Daily Weather History Graph

Search for Another Location

Airport:

Trip Planner

Search our weather history database for the weather conditions in past years. The results will help you decide how hot, cold, wet, or windy it might be!

Date:

Astronomy

Nov. 04, 2011 Rise Set
Actual Time 6:36 AM MST 5:26 PM MST
Civil Twilight 6:11 AM MST 5:52 PM MST
Nautical Twilight 5:42 AM MST 6:21 PM MST
Astronomical Twilight 5:13 AM MST 6:49 PM MST
Moon 2:01 PM MST (11/4) 1:12 AM MST (11/4)
Length of Visible Light 11h 40m
Length of Day
10h 50m
Waxing Gibbous, 70% of the Moon is Illuminated
Nov 4
Waxing Gibbous
Nov 10
Full
Nov 18
Last Quarter
Nov 24
New
Dec 2
First Quarter

Hourly Weather History & Observations

Time (MST) Temp. Windchill Dew Point Humidity Pressure Visibility Wind Dir Wind Speed Gust Speed Precip Events Conditions
12:56 AM 50.0 °F - 18.0 °F 28% 29.91 in 10.0 mi Calm Calm - N/A   Clear
1:56 AM 51.1 °F - 19.9 °F 29% 29.89 in 10.0 mi West 3.5 mph - N/A   Clear
2:56 AM 48.9 °F - 19.0 °F 31% 29.88 in 10.0 mi NW 3.5 mph - N/A   Clear
3:56 AM 45.0 °F 43.5 °F 18.0 °F 34% 29.87 in 10.0 mi ENE 3.5 mph - N/A   Clear
4:56 AM 41.0 °F - 17.1 °F 38% 29.89 in 10.0 mi Calm Calm - N/A   Clear
5:56 AM 45.0 °F - 17.1 °F 33% 29.90 in 10.0 mi Calm Calm - N/A   Clear
6:56 AM 39.2 °F - 14.0 °F 36% 30.02 in 10.0 mi Calm Calm - N/A   Clear
7:56 AM 48.9 °F - 19.0 °F 31% 29.91 in 10.0 mi Calm Calm - N/A   Clear
8:56 AM 60.1 °F - 21.9 °F 23% 29.90 in 10.0 mi Calm Calm - N/A   Clear
9:56 AM 70.0 °F - 33.1 °F 26% 29.87 in 10.0 mi SSE 18.4 mph - N/A   Clear
11:56 AM 80.1 °F - 30.0 °F 16% 29.78 in 10.0 mi South 18.4 mph 33.4 mph N/A   Clear
12:56 PM 81.0 °F - 26.1 °F 13% 29.75 in 10.0 mi SSW 18.4 mph 27.6 mph N/A   Clear
1:56 PM 80.1 °F - 28.0 °F 15% 29.70 in 10.0 mi South 23.0 mph 32.2 mph N/A   Clear
2:56 PM 78.8 °F - 24.8 °F 14% 29.84 in 10.0 mi SSE 24.2 mph 34.5 mph N/A   Clear
3:56 PM 79.0 °F - 23.0 °F 13% 29.68 in 10.0 mi South 26.5 mph 33.4 mph N/A   Clear
4:56 PM 75.9 °F - 19.9 °F 12% 29.70 in 10.0 mi SSW 24.2 mph 33.4 mph N/A   Clear
5:56 PM 72.0 °F - 23.0 °F 16% 29.69 in 10.0 mi South 21.9 mph 27.6 mph N/A   Clear
6:56 PM 69.1 °F - 25.0 °F 19% 29.72 in 10.0 mi South 18.4 mph - N/A   Clear
7:56 PM 66.2 °F - 30.2 °F 26% 29.84 in 10.0 mi South 19.6 mph 25.3 mph N/A   Clear
8:56 PM 66.9 °F - 41.0 °F 39% 29.65 in 10.0 mi South 28.8 mph 36.8 mph N/A   Clear
9:56 PM 66.0 °F - 45.0 °F 47% 29.62 in 10.0 mi South 32.2 mph 43.7 mph N/A   Clear
10:56 PM 64.9 °F - 43.0 °F 45% 29.60 in 10.0 mi South 31.1 mph 38.0 mph N/A   Partly Cloudy
11:56 PM 64.4 °F - 42.8 °F 45% 29.79 in 10.0 mi South 28.8 mph 44.9 mph N/A   Partly Cloudy